Gainesville, GA

5:09 PM EDT on October 21, 2019 (GMT -0400)
Gilmer Memorial

Weather History for KGVL - August, 2019

Change the Weather History Date:

Thursday, August 15, 2019

  Actual Average Record
Temperature  
Mean Temperature 82 °F 78 °F  
Max Temperature 91 °F 87 °F 100 °F (2007)
Min Temperature 72 °F 69 °F 57 °F (1967)
Cooling Degree Days 17 13  
Month to date cooling degree days 233 207  
Year to date cooling degree days 1306 1129  
Since 1 June cooling degree days 970 954  
Growing Degree Days 31 (Base 50)    
Moisture  
Dew Point 69 °F    
Average Humidity 72    
Maximum Humidity 100    
Minimum Humidity 43    
Precipitation  
Precipitation 0.00 in 0.13 in 2.85 in (1993)
Month to date precipitation 2.13 2.40  
Year to date precipitation 36.97 34.22  
Sea Level Pressure  
Sea Level Pressure 29.94 in    
Wind  
Wind Speed 4 mph (NW)    
Max Wind Speed 13 mph    
Max Gust Speed 18 mph    
Visibility 10 miles    
Events      
T = Trace of Precipitation, MM = Missing Value Source: NWS Daily Summary

Daily Weather History Graph

Daily Weather History Graph

Search for Another Location

Airport or City:

Astronomy

Aug. 15, 2019 Rise Set
Actual Time 6:56 AM EDT 8:22 PM EDT
Civil Twilight 6:29 AM EDT 8:49 PM EDT
Nautical Twilight 5:57 AM EDT 9:20 PM EDT
Astronomical Twilight 5:24 AM EDT 9:54 PM EDT
Moon 8:49 PM EDT (8/15) 6:52 AM EDT (8/15)
Length of Visible Light 14h 19m
Length of Day
13h 26m
Full, 100% of the Moon is Illuminated
Aug 15
Full
Aug 23
Last Quarter
Aug 30
New
Sep 5
First Quarter
Sep 14
Full

Hourly Weather History & Observations

Time (EDT) Temp. Heat Index Dew Point Humidity Pressure Visibility Wind Dir Wind Speed Gust Speed Precip Events Conditions
12:53 AM 73.0 °F - 73.0 °F 100% 29.95 in 10.0 mi Calm Calm - N/A   Partly Cloudy
1:53 AM 72.0 °F - 72.0 °F 100% 29.93 in 9.0 mi West 4.6 mph - N/A   Clear
2:53 AM 73.9 °F - 73.9 °F 100% 29.91 in 10.0 mi WNW 5.8 mph - N/A   Clear
3:53 AM 73.9 °F - 73.9 °F 100% 29.90 in 10.0 mi WNW 4.6 mph - N/A   Clear
4:53 AM 73.9 °F - 72.0 °F 93% 29.91 in 10.0 mi West 3.5 mph - N/A   Clear
5:53 AM 73.0 °F - 70.0 °F 90% 29.92 in 10.0 mi NW 4.6 mph - N/A   Clear
6:53 AM 73.0 °F - 70.0 °F 90% 29.94 in 10.0 mi NNW 4.6 mph - N/A   Clear
7:53 AM 73.0 °F - 70.0 °F 90% 29.96 in 10.0 mi WNW 3.5 mph - N/A   Clear
8:53 AM 75.0 °F - 71.1 °F 87% 29.97 in 10.0 mi NW 3.5 mph - N/A   Clear
9:53 AM 81.0 °F 84.9 °F 71.1 °F 72% 29.97 in 10.0 mi Variable 3.5 mph - N/A   Clear
10:53 AM 80.1 °F 83.6 °F 71.1 °F 74% 29.99 in 10.0 mi Calm Calm - N/A   Clear
11:53 AM 84.0 °F 87.0 °F 68.0 °F 58% 29.99 in 10.0 mi Calm Calm - N/A   Clear
12:53 PM 86.0 °F 90.7 °F 70.0 °F 59% 29.97 in 10.0 mi North 3.5 mph - N/A   Clear
1:53 PM 87.1 °F 89.9 °F 66.9 °F 51% 29.95 in 10.0 mi Calm Calm - N/A   Partly Cloudy
2:53 PM 87.1 °F 91.3 °F 69.1 °F 55% 29.94 in 10.0 mi Variable 6.9 mph - N/A   Clear
3:53 PM 90.0 °F 92.4 °F 66.0 °F 45% 29.91 in 10.0 mi Variable 5.8 mph - N/A   Scattered Clouds
4:53 PM 90.0 °F 92.4 °F 66.0 °F 45% 29.90 in 10.0 mi Calm Calm - N/A   Clear
6:53 PM 88.0 °F 88.7 °F 63.0 °F 43% 29.90 in 10.0 mi NNW 9.2 mph - N/A   Clear
7:53 PM 86.0 °F 86.8 °F 63.0 °F 46% 29.92 in 10.0 mi NNW 9.2 mph - N/A   Clear
8:53 PM 82.0 °F 83.4 °F 64.0 °F 54% 29.94 in 10.0 mi NW 6.9 mph - N/A   Clear
9:53 PM 79.0 °F - 64.9 °F 62% 29.96 in 10.0 mi WNW 4.6 mph - N/A   Clear
10:53 PM 75.9 °F - 66.0 °F 71% 29.98 in 10.0 mi West 3.5 mph - N/A   Clear
11:53 PM 75.0 °F - 66.0 °F 73% 29.96 in 10.0 mi WNW 4.6 mph - N/A   Clear